Location: Heidgraben
(53.7081°N, 9.6576°E)
Time: 04:45:22
(UTC+00:00)

GEOS 3 Rocket - Pass Details

Date: 05 July 2020
Orbit: 771 x 848 km, 115.0° (Epoch: 06 August)

Event Time Altitude Azimuth Distance (km) Brightness Sun altitude
Rises 20:54:19 0° 46° (NE) 3,408 7.0 -6.9°
Reaches altitude 10° 20:56:40 10° 49° (NE) 2,475 6.2 -7.1°
Maximum altitude 21:02:03 66° 132° (SE) 926 3.7 -7.5°
Drops below altitude 10° 21:07:25 10° 214° (SW) 2,467 5.9 -8.0°
Sets 21:09:45 0° 217° (SW) 3,396 6.6 -8.1°
